レヴィ彗星

255P/Levy (2012)

English version
Home page
Updated on February 24, 2012

---------------------------------------------------------------------

・ プロフィール

符号 255P/2011 Y1
検出日 2011年12月17日
検出光度 19.8等
検出者 Mt. Lemmon Survey

・ 写真集

・ 軌道要素

Epoch 2012 Feb. 3.0 TT = JDT 2455960.5
T 2012 Jan. 14.94158 TT                                 MPC
q   1.0074603            (2000.0)            P               Q
n   0.18623580     Peri.  179.62806     -0.16320049     -0.93699059
a   3.0368775      Node   279.74593     +0.90437009     -0.01694603
e   0.6682578      Incl.   18.26516     +0.39430995     -0.34894337
P   5.29
From 430 observations 2006 Oct. 2-2012 Jan. 20, mean residual 0".9.

・ 星図

・ 光度変化

        m1 = 17 + 5 logΔ + 40 log r

---------------------------------------------------------------------

軌道要素はM.P.E.C. 2012-B23に掲載されたものです。
星図は StellaNavigator Ver.2.0 for Windows (アストロアーツ編著 / アスキー出版局刊) で作成したものです。
光度グラフはComet for Windowsで作成したものです。

---------------------------------------------------------------------

Copyright(C) Seiichi Yoshida (comet@aerith.net). All rights reserved.